Other Surface Observations
Issued by NWS

Home | Current Version | Previous Version | Text Only | Print | Product List | Glossary On
Versions: 1 2 3 4 5 6 7 8 9 10 11 12 13 14 15 16 17 18 19 20 21 22 23 24 25 26 27 28 29 30 31 32 33 34 35 36 37 38 39 40 41 42 43 44 45 46 47 48 49 50
843
SXUS52 KTAE 220518
OSOTAE
OSOTAE
North Florida/South Alabama/Southwest Georgia Weather Roundup
National Weather Service Tallahassee Florida
100 AM EDT SAT JUL 22 2017

Note: "fair" indicates few or no clouds below 12,000 feet with no
significant weather and/or obstructions to visibility.

!FLZ017-115-028-034-025-220600
...North Florida...

CITY           SKY/WX    TMP DP  RH WIND       PRES   REMARKS
TALLAHASSEE    CLEAR     75  75 100 CALM      30.04F
APALACHICOLA   PTCLDY    77  76  96 CALM      30.02F
PERRY          CLEAR     74  72  95 CALM      30.05S
CROSS CITY     CLEAR     72  71  98 CALM      30.09F
JACKSONVILLE   CLEAR     75  73  93 CALM      30.04R
$$

!FLZ112-006-005-002-011-220600
...Florida Panhandle...

CITY           SKY/WX    TMP DP  RH WIND       PRES   REMARKS
MARIANNA       CLEAR     75  74  96 S5        30.02F
BONIFAY        NOT AVBL
PANAMA CITY NW FAIR      76  74  93 N5        30.02S
TYNDALL AFB    DRIZZLE   77  75  94 CALM      30.03S
TYND DRONE APT FAIR      76  73  90 CALM      30.02F
DE FUNIAK SPR  FAIR      74  74  98 CALM      30.04S
EGLIN AFB      PTCLDY    79  74  86 CALM      30.02S
DESTIN         PTCLDY    85  75  72 S3        30.01F HX  93
HURLBURT       PTCLDY    82  80  95 VRB2      30.00S HX  93
CRESTVIEW      CLEAR     75  72  90 CALM      30.04R
PENSACOLA      MOCLDY    80  75  84 S6        30.00F
$$

!ALZ063-066-220600
...South Alabama...

CITY           SKY/WX    TMP DP  RH WIND       PRES   REMARKS
DOTHAN         CLEAR     76  73  91 CALM      30.06F
OZARK CAIRNS   MOCLDY    74  71  89 CALM      30.04S
FT RUCKER HELI NOT AVBL
RUCKER HELI 3  NOT AVBL
RUCKER HELI 2  NOT AVBL
FLORALA APT    CLEAR     72  67  84 CALM      30.04F
ANDALUSIA      CLEAR     73  69  87 CALM      30.02F
TROY           PTCLDY    73  73 100 CALM      30.03F
EUFALA         FAIR      75  72  90 CALM      30.02F
MOBILE         PTCLDY    77  73  87 CALM      30.01F
$$

!GAZ120>161-220600
...Southwest and South Central Georgia...

CITY           SKY/WX    TMP DP  RH WIND       PRES   REMARKS
THOMASVILLE    FAIR      73  73 100 CALM      30.06F
BAINBRIDGE     PTCLDY    73  73 100 CALM      30.04F
MOODY AFB      CLEAR     73  71  94 SW3       30.04S
VALDOSTA       CLEAR     71  71 100 CALM      30.05S
MOULTRIE       PTCLDY    73  72  94 CALM      30.05F FOG
BLAKELY        CLEAR     75  72  88 CALM      30.02F
ALBANY         CLEAR     74  73  97 S3        30.05F
TIFTON         FAIR      74  74 100 SW5       30.04F
FITZGERALD     FAIR      75  75  99 CALM      30.07S
CORDELE        FAIR      80  73  79 CALM      30.05S
AMERICUS       FAIR      73  73 100 CALM      30.05F FOG
HOMERVILLE     FAIR      72  72 100 CALM      30.06R
$$

!GMZ750-755-770-775-220600
...Coastal and Buoy Obs...

STATION/POSITION TIME  TEMP    WIND        PRES    VSBY  WAVE
                       AIR SEA DIR/SP/G                  HT/PER
                 (UTC) (F)     (DEG/KT/KT) (MB)    (MI)  (FT/S)
KEATON BEACH     0500   74      90/  8/  9 1016.7F
CEDAR KEY        0500   80      70/  7/  9 1017.8F
C TOWER          NOT AVBL
APALACHICOLA BUO 0450   83 87  230/  6/  8 1017.0F         1/ 3
PANAMA CITY BUOY 0450   84 85  210/  4/  6 1016.7F         1/ 8
MOBILE BUOY      0500   84 85  200/  6/  6 1016.5
ORANGE BCH AL BU 0450   85 88  190/  6/  8 1015.8F         1/ 3
$$




USA.gov is the U.S. government's official web portal to all federal, state and local government web resources and services.